Regional Weather Roundup
Issued by NWS

Home | Current Version | Previous Version | Text Only | Print | Product List | Glossary On
Versions: 1 2 3 4 5 6 7 8 9 10 11 12 13 14 15 16 17 18 19 20 21 22 23 24 25 26 27 28 29 30 31 32 33 34 35 36 37 38 39 40 41 42 43 44 45 46 47 48 49 50
000
ASUS45 KSLC 240310
RWRUT

UTAH REGIONAL WEATHER ROUNDUP
NATIONAL WEATHER SERVICE SALT LAKE CITY UT
900 PM MDT THU MAR 23 2017

UTZ001>011-023>025-240400-

NORTHERN UTAH

CITY           SKY/WX    TMP DP  RH WIND       PRES   REMARKS
BRIGHAM CITY     N/A     41  38  88 CALM      30.02R
HILL AFB       CLEAR     35  34  96 S8        30.01R WCI  29
LOGAN          MOCLDY    44  37  76 SW6       29.99R
OGDEN          CLEAR     36  35  96 SE6       30.01R WCI  31
SALT LAKE CITY PTCLDY    41  36  82 CALM      30.01R
WENDOVER       CLEAR     50  23  34 NW16      30.04R
HEBER CITY     CLOUDY    39  30  70 NE10G20   29.97R WCI  32

$$

UTZ011>015-024>027-240400-

CENTRAL/NORTHEAST UTAH

CITY           SKY/WX    TMP DP  RH WIND       PRES   REMARKS
PROVO AIRPORT  MOCLDY    41  36  82 CALM      30.02R
MOAB/CANYONLAN MOCLDY    46  36  68 W14       29.80R
DELTA          PTCLDY    34  32  93 S8        30.04R WCI  27
PRICE          PTCLDY    40  30  67 W15       29.86S WCI  32
RICHFIELD      CLOUDY    39  34  81 SW6       30.04R WCI  35
ROOSEVELT      CLOUDY    45  36  70 SW9       29.85R
VERNAL         CLOUDY    46  32  58 E3        29.83R

$$

UTZ013>016-019>022-027-240400-

SOUTHERN UTAH

CITY           SKY/WX    TMP DP  RH WIND       PRES   REMARKS
BRYCE CANYON   LGT SNOW  31  26  82 NW16G29   29.98R WCI  20
CEDAR CITY     PTCLDY    35  27  72 NE7       30.06R WCI  29
MILFORD        CLEAR    N/A N/A N/A W5        30.05R
ST GEORGE      CLOUDY    50  42  74 SE7       30.02R
HANKSVILLE     CLEAR     45  30  57 NW12      29.88R
KANAB          CLEAR     45  23  42 SW2G12    30.05R
BLANDING       CLOUDY    42  29  60 NW16      29.89R

$$

REGIONAL REPORTS     COLORADO/ARIZONA

CITY           SKY/WX    TMP DP  RH WIND       PRES   REMARKS
CRAIG, CO      RAIN      42  36  79 N22G29    29.82R
GRAND JUNCTION CLOUDY    45  38  76 N15       29.79R
RIFLE, CO      LGT RAIN  46  39  76 W13       29.78R
MONTROSE, CO   CLOUDY    42  37  82 NW7       29.81S
CORTEZ, CO     LGT RAIN  38  36  92 CALM      29.83F
COLORADO CITY    N/A     43  34  70 S3        30.07R
PAGE, AZ       CLOUDY    51  32  48 W9        29.90R
GRAND CANYON   CLOUDY    36  34  92 NW3       30.05R
KINGMAN, AZ    CLEAR     48  34  58 S7        30.04R
FLAGSTAFF, AZ  FLURRIES  34  31  88 W9G21     30.03R WCI  27

$$

REGIONAL REPORTS    NEVADA/IDAHO/WYOMING

CITY           SKY/WX    TMP DP  RH WIND       PRES   REMARKS
LAS VEGAS, NV  PTCLDY    67  25  20 E6        29.97R
ELY, NY        CLEAR     37  22  54 W10       30.10R WCI  30
ELKO, NV       CLEAR     41  28  60 SW5       30.10R
POCATELLO, ID  CLEAR     43  28  55 SW17      30.02R
BURLEY, ID     CLEAR     41  24  51 SW8       30.04R
FORT BRIDGER,  CLOUDY    36  36 100 W8        30.00R WCI  29
EVANSTON, WY   CLOUDY    33  28  81 SW5       29.99R WCI  29
ROCK SPRINGS,  CLOUDY    38  30  73 NE10      29.92S WCI  31

$$



USA.gov is the U.S. government's official web portal to all federal, state and local government web resources and services.